SBI185 UNKL-UNNT

Flight info

Callsign SBI185
Flight time 1h 8m
Altitude 36000
Route APRUS2F APRUS B926 NATIR NATIR1P
Aircraft B738/M-SDE2E3FGHIRWXY/LB1

Departure

Time 2026-05-01 14:25
Airport Krasnoyarsk International Airport (UNKL)

Arrival

Time 2026-05-01 15:33
Airport Novosibirsk Tolmachevo Airport (UNNT)
Time Latitude Longitude Altitude Speed Heading
2026-05-01 13:34 56.17930 92.48618 951 ft 0 kts 22°
2026-05-01 14:08 56.17922 92.48611 949 ft 2 kts 21°
2026-05-01 14:08 56.17908 92.48601 949 ft 2 kts 22°
2026-05-01 14:09 56.17896 92.48593 949 ft 0 kts 21°
2026-05-01 14:09 56.17885 92.48586 949 ft 2 kts
2026-05-01 14:09 56.17870 92.48586 949 ft 2 kts 348°
2026-05-01 14:09 56.17856 92.48596 949 ft 2 kts 328°
2026-05-01 14:10 56.17845 92.48613 949 ft 2 kts 309°
2026-05-01 14:10 56.17838 92.48631 949 ft 0 kts 293°
2026-05-01 14:10 56.17836 92.48643 949 ft 0 kts 291°
2026-05-01 14:17 56.17846 92.48592 949 ft 7 kts 291°
2026-05-01 14:17 56.17855 92.48482 949 ft 14 kts 242°
2026-05-01 14:17 56.17756 92.48398 949 ft 15 kts 174°
2026-05-01 14:17 56.17691 92.48597 949 ft 25 kts 112°
2026-05-01 14:18 56.17625 92.48874 949 ft 21 kts 113°
2026-05-01 14:18 56.17564 92.49127 949 ft 23 kts 112°
2026-05-01 14:18 56.17497 92.49411 949 ft 25 kts 113°
2026-05-01 14:18 56.17452 92.49598 949 ft 23 kts 112°
2026-05-01 14:19 56.17377 92.49916 949 ft 19 kts 112°
2026-05-01 14:19 56.17324 92.50135 949 ft 19 kts 113°
2026-05-01 14:19 56.17274 92.50349 949 ft 18 kts 112°
2026-05-01 14:19 56.17226 92.50552 949 ft 17 kts 114°
2026-05-01 14:20 56.17177 92.50749 949 ft 17 kts 113°
2026-05-01 14:20 56.17087 92.51130 949 ft 16 kts 113°
2026-05-01 14:20 56.17034 92.51353 949 ft 23 kts 111°
2026-05-01 14:21 56.16965 92.51640 949 ft 26 kts 112°
2026-05-01 14:21 56.16891 92.51933 949 ft 24 kts 125°
2026-05-01 14:21 56.16776 92.52060 949 ft 0 kts 172°
2026-05-01 14:22 56.16768 92.52062 948 ft 5 kts 173°
2026-05-01 14:23 56.16732 92.52067 948 ft 0 kts 179°
2026-05-01 14:23 56.16730 92.52067 948 ft 2 kts 179°
2026-05-01 14:23 56.16670 92.51932 948 ft 14 kts 290°
2026-05-01 14:23 56.16672 92.51924 948 ft 0 kts 291°
2026-05-01 14:24 56.16705 92.51778 948 ft 43 kts 292°
2026-05-01 14:24 56.16921 92.50877 948 ft 113 kts 292°
2026-05-01 14:24 56.17316 92.49219 951 ft 170 kts 292°
2026-05-01 14:25 56.17818 92.47201 1435 ft 181 kts 294°
2026-05-01 14:25 56.18300 92.45209 2323 ft 176 kts 292°
2026-05-01 14:25 56.18793 92.43108 2772 ft 192 kts 292°
2026-05-01 14:25 56.19344 92.40787 3127 ft 210 kts 292°
2026-05-01 14:26 56.19934 92.38277 3397 ft 231 kts 292°
2026-05-01 14:26 56.21231 92.32783 4662 ft 244 kts 292°
2026-05-01 14:26 56.21813 92.29892 5322 ft 249 kts 279°
2026-05-01 14:27 56.21615 92.26882 5945 ft 253 kts 248°
2026-05-01 14:27 56.20842 92.24000 6021 ft 257 kts 244°
2026-05-01 14:27 56.20114 92.21134 6025 ft 255 kts 247°
2026-05-01 14:28 56.18704 92.14901 6034 ft 276 kts 249°
2026-05-01 14:28 56.18014 92.11710 6038 ft 276 kts 249°
2026-05-01 14:28 56.17323 92.08504 6040 ft 275 kts 249°
2026-05-01 14:28 56.16636 92.05338 6036 ft 273 kts 249°
2026-05-01 14:29 56.15948 92.02156 6044 ft 273 kts 249°
2026-05-01 14:29 56.15268 91.99006 6052 ft 273 kts 249°
2026-05-01 14:30 56.13214 91.89506 6058 ft 272 kts 249°
2026-05-01 14:30 56.12530 91.86353 6043 ft 272 kts 249°
2026-05-01 14:31 56.10522 91.77245 6055 ft 275 kts 249°
2026-05-01 14:31 56.09816 91.74084 6048 ft 275 kts 249°
2026-05-01 14:31 56.09105 91.70884 6044 ft 275 kts 249°
2026-05-01 14:31 56.08411 91.67760 6041 ft 273 kts 249°
2026-05-01 14:32 56.07708 91.64600 6037 ft 272 kts 249°
2026-05-01 14:32 56.07006 91.61436 6035 ft 272 kts 249°
2026-05-01 14:32 56.06312 91.58310 6040 ft 272 kts 249°
2026-05-01 14:32 56.05612 91.55173 6041 ft 272 kts 249°
2026-05-01 14:33 56.04906 91.52021 6036 ft 273 kts 249°
2026-05-01 14:33 56.04203 91.48883 6035 ft 272 kts 249°
2026-05-01 14:33 56.03502 91.45753 6034 ft 272 kts 249°
2026-05-01 14:33 56.02808 91.42660 6111 ft 271 kts 249°
2026-05-01 14:34 56.02113 91.39575 6658 ft 272 kts 249°
2026-05-01 14:34 56.01398 91.36422 7307 ft 276 kts 249°
2026-05-01 14:34 56.00678 91.33237 8073 ft 285 kts 249°
2026-05-01 14:34 55.99920 91.29880 8856 ft 295 kts 249°
2026-05-01 14:35 55.99147 91.26453 9609 ft 305 kts 249°
2026-05-01 14:35 55.98416 91.22918 10368 ft 312 kts 255°
2026-05-01 14:35 55.97909 91.19111 11130 ft 318 kts 259°
2026-05-01 14:35 55.97457 91.15256 11897 ft 324 kts 259°
2026-05-01 14:36 55.96989 91.11331 12657 ft 329 kts 259°
2026-05-01 14:36 55.96020 91.03178 14241 ft 336 kts 260°
2026-05-01 14:36 55.95540 90.99171 15031 ft 338 kts 261°
2026-05-01 14:37 55.95051 90.95094 15817 ft 339 kts 261°
2026-05-01 14:37 55.94554 90.90961 16589 ft 340 kts 261°
2026-05-01 14:37 55.94062 90.86852 17335 ft 340 kts 262°
2026-05-01 14:37 55.93572 90.82764 18075 ft 340 kts 262°
2026-05-01 14:38 55.93083 90.78682 18818 ft 339 kts 262°
2026-05-01 14:38 55.92601 90.74636 19562 ft 336 kts 262°
2026-05-01 14:38 55.92113 90.70579 20308 ft 333 kts 262°
2026-05-01 14:38 55.91629 90.66594 21054 ft 330 kts 263°
2026-05-01 14:39 55.91154 90.62685 21801 ft 325 kts 263°
2026-05-01 14:39 55.90679 90.58761 22434 ft 324 kts 263°
2026-05-01 14:39 55.90204 90.54877 22939 ft 326 kts 263°
2026-05-01 14:39 55.89720 90.50930 23454 ft 327 kts 263°
2026-05-01 14:40 55.89259 90.46922 24044 ft 408 kts 264°
2026-05-01 14:40 55.89042 90.42254 24681 ft 375 kts 265°
2026-05-01 14:40 55.88460 90.37734 25196 ft 377 kts 260°
2026-05-01 14:40 55.87771 90.33250 25712 ft 376 kts 260°
2026-05-01 14:41 55.87132 90.28768 26228 ft 375 kts 261°
2026-05-01 14:41 55.86533 90.24309 26741 ft 373 kts 262°
2026-05-01 14:41 55.86103 90.19744 27316 ft 379 kts 265°
2026-05-01 14:41 55.85739 90.14585 27971 ft 448 kts 267°
2026-05-01 14:42 55.85171 90.09331 28481 ft 423 kts 259°
2026-05-01 14:42 55.84390 90.04336 29054 ft 457 kts 264°
2026-05-01 14:42 55.83743 89.98926 29581 ft 438 kts 260°
2026-05-01 14:42 55.82973 89.93756 30109 ft 430 kts 259°
2026-05-01 14:43 55.82199 89.88700 30637 ft 425 kts 259°
2026-05-01 14:43 55.81472 89.83696 31158 ft 419 kts 260°
2026-05-01 14:43 55.80772 89.78713 31688 ft 413 kts 261°
2026-05-01 14:43 55.80098 89.73810 32079 ft 411 kts 261°
2026-05-01 14:44 55.79428 89.68837 32103 ft 418 kts 261°
2026-05-01 14:44 55.78070 89.58653 32095 ft 431 kts 261°
2026-05-01 14:44 55.77383 89.53464 32095 ft 437 kts 261°
2026-05-01 14:45 55.75256 89.37514 32089 ft 446 kts 261°
2026-05-01 14:46 55.73834 89.26928 32089 ft 442 kts 260°
2026-05-01 14:46 55.71692 89.11013 32088 ft 445 kts 260°
2026-05-01 14:47 55.70252 89.00415 32086 ft 444 kts 260°
2026-05-01 14:48 55.68078 88.84502 32086 ft 444 kts 260°
2026-05-01 14:48 55.65899 88.68661 32085 ft 445 kts 260°
2026-05-01 14:49 55.62954 88.47501 32087 ft 444 kts 260°
2026-05-01 14:50 55.59965 88.26317 32089 ft 446 kts 259°
2026-05-01 14:51 55.57699 88.10458 32090 ft 446 kts 259°
2026-05-01 14:52 55.55411 87.94577 32088 ft 445 kts 259°
2026-05-01 14:53 55.53108 87.78763 32084 ft 446 kts 259°
2026-05-01 14:53 55.51558 87.68215 32082 ft 446 kts 259°
2026-05-01 14:54 55.49999 87.57676 32085 ft 445 kts 259°
2026-05-01 14:54 55.48439 87.47225 32086 ft 444 kts 259°
2026-05-01 14:55 55.46863 87.36739 32082 ft 447 kts 258°
2026-05-01 14:55 55.45262 87.26193 32074 ft 446 kts 258°
2026-05-01 14:56 55.43655 87.15685 32071 ft 446 kts 258°
2026-05-01 14:56 55.42041 87.05205 32064 ft 447 kts 258°
2026-05-01 14:57 55.40408 86.94651 32059 ft 447 kts 257°
2026-05-01 14:57 55.37957 86.78912 32053 ft 447 kts 257°
2026-05-01 14:58 55.36317 86.68474 32050 ft 447 kts 257°
2026-05-01 14:58 55.34658 86.57981 32048 ft 447 kts 257°
2026-05-01 14:59 55.32987 86.47499 32047 ft 446 kts 257°
2026-05-01 14:59 55.31323 86.37115 32048 ft 446 kts 257°
2026-05-01 15:00 55.28782 86.21378 32048 ft 447 kts 256°
2026-05-01 15:01 55.27350 86.10863 32045 ft 445 kts 263°
2026-05-01 15:01 55.26696 86.00106 32046 ft 446 kts 265°
2026-05-01 15:02 55.26115 85.89287 32046 ft 446 kts 266°
2026-05-01 15:02 55.25555 85.78532 32047 ft 445 kts 266°
2026-05-01 15:03 55.25002 85.67780 32051 ft 443 kts 266°
2026-05-01 15:03 55.24449 85.57046 32054 ft 443 kts 266°
2026-05-01 15:04 55.23892 85.46387 32052 ft 443 kts 266°
2026-05-01 15:04 55.23328 85.35667 32046 ft 444 kts 265°
2026-05-01 15:05 55.22749 85.24915 32040 ft 443 kts 265°
2026-05-01 15:05 55.22170 85.14291 32041 ft 442 kts 265°
2026-05-01 15:06 55.21579 85.03560 32037 ft 442 kts 265°
2026-05-01 15:06 55.20982 84.92935 32035 ft 442 kts 265°
2026-05-01 15:07 55.20374 84.82259 32033 ft 444 kts 264°
2026-05-01 15:07 55.19557 84.71558 32027 ft 445 kts 258°
2026-05-01 15:08 55.17806 84.61227 32028 ft 446 kts 252°
2026-05-01 15:08 55.15851 84.50945 31837 ft 451 kts 253°
2026-05-01 15:08 55.14859 84.45755 31170 ft 446 kts 252°
2026-05-01 15:09 55.13893 84.40743 30521 ft 435 kts 252°
2026-05-01 15:09 55.12936 84.35807 29863 ft 434 kts 252°
2026-05-01 15:09 55.11968 84.30872 29191 ft 434 kts 251°
2026-05-01 15:09 55.10978 84.25878 28517 ft 433 kts 251°
2026-05-01 15:10 55.10004 84.20985 27853 ft 430 kts 251°
2026-05-01 15:10 55.08061 84.11275 26532 ft 423 kts 250°
2026-05-01 15:10 55.07092 84.06449 25879 ft 425 kts 250°
2026-05-01 15:11 55.06118 84.01615 25229 ft 426 kts 250°
2026-05-01 15:11 55.04160 83.91944 23918 ft 422 kts 250°
2026-05-01 15:11 55.03198 83.87205 23272 ft 417 kts 250°
2026-05-01 15:12 55.02237 83.82493 22637 ft 413 kts 250°
2026-05-01 15:12 55.00305 83.73174 21360 ft 405 kts 250°
2026-05-01 15:12 54.99352 83.68604 20731 ft 403 kts 250°
2026-05-01 15:13 54.96563 83.55268 19988 ft 381 kts 250°
2026-05-01 15:14 54.94789 83.46800 20010 ft 374 kts 250°
2026-05-01 15:14 54.93868 83.42419 19827 ft 394 kts 250°
2026-05-01 15:14 54.91977 83.33460 18702 ft 396 kts 249°
2026-05-01 15:15 54.90095 83.24578 17503 ft 387 kts 249°
2026-05-01 15:15 54.88256 83.15948 16298 ft 379 kts 249°
2026-05-01 15:16 54.87021 83.07272 15105 ft 373 kts 265°
2026-05-01 15:16 54.87586 82.98427 13907 ft 369 kts 279°
2026-05-01 15:17 54.88537 82.89806 12716 ft 363 kts 279°
2026-05-01 15:18 54.89225 82.77455 10879 ft 317 kts 268°
2026-05-01 15:18 54.89226 82.73701 10294 ft 303 kts 268°
2026-05-01 15:19 54.89300 82.63303 8535 ft 285 kts 268°
2026-05-01 15:19 54.89388 82.56489 7984 ft 284 kts 269°
2026-05-01 15:19 54.89438 82.53030 7974 ft 287 kts 269°
2026-05-01 15:20 54.89537 82.46162 7965 ft 285 kts 269°
2026-05-01 15:20 54.89586 82.42718 7881 ft 285 kts 268°
2026-05-01 15:20 54.89642 82.39271 7719 ft 286 kts 269°
2026-05-01 15:21 54.89713 82.35828 7184 ft 288 kts 269°
2026-05-01 15:21 54.89811 82.32360 6570 ft 283 kts 269°
2026-05-01 15:21 54.89936 82.29005 5962 ft 283 kts 270°
2026-05-01 15:21 54.90097 82.25603 5352 ft 282 kts 271°
2026-05-01 15:22 54.90516 82.18915 4153 ft 279 kts 274°
2026-05-01 15:22 54.90782 82.15624 3986 ft 275 kts 275°
2026-05-01 15:22 54.91109 82.12310 3993 ft 281 kts 281°
2026-05-01 15:23 54.91749 82.09075 3992 ft 284 kts 288°
2026-05-01 15:23 54.92485 82.05924 3995 ft 284 kts 288°
2026-05-01 15:23 54.93227 82.02763 3998 ft 284 kts 288°
2026-05-01 15:23 54.93973 81.99588 3997 ft 282 kts 290°
2026-05-01 15:24 54.95040 81.96781 3882 ft 282 kts 318°
2026-05-01 15:24 54.96759 81.95309 3604 ft 283 kts 353°
2026-05-01 15:24 54.98687 81.95658 3346 ft 273 kts 24°
2026-05-01 15:24 55.00308 81.97163 3131 ft 265 kts 39°
2026-05-01 15:25 55.01791 81.99058 2919 ft 266 kts 43°
2026-05-01 15:25 55.02994 82.01383 2698 ft 256 kts 67°
2026-05-01 15:25 55.03498 82.04250 2493 ft 244 kts 89°
2026-05-01 15:25 55.03510 82.07175 2266 ft 238 kts 102°
2026-05-01 15:26 55.03068 82.09890 2044 ft 231 kts 116°
2026-05-01 15:26 55.02438 82.12396 1995 ft 220 kts 117°
2026-05-01 15:26 55.01860 82.14754 1988 ft 203 kts 117°
2026-05-01 15:26 55.01330 82.16928 2004 ft 189 kts 117°
2026-05-01 15:27 55.00812 82.19024 2007 ft 191 kts 118°
2026-05-01 15:27 55.00284 82.21156 2001 ft 190 kts 117°
2026-05-01 15:27 54.99768 82.23247 1997 ft 191 kts 117°
2026-05-01 15:28 54.98719 82.27499 1994 ft 190 kts 117°
2026-05-01 15:28 54.98212 82.29620 1987 ft 191 kts 111°
2026-05-01 15:28 54.98133 82.31921 1992 ft 200 kts 86°
2026-05-01 15:29 54.98612 82.36704 2008 ft 199 kts 86°
2026-05-01 15:29 54.98839 82.39088 1994 ft 200 kts 86°
2026-05-01 15:29 54.99289 82.43899 1992 ft 201 kts 87°
2026-05-01 15:30 54.99730 82.48620 1951 ft 188 kts 87°
2026-05-01 15:31 55.00413 82.56023 1109 ft 144 kts 86°
2026-05-01 15:31 55.00732 82.59476 726 ft 144 kts 84°
2026-05-01 15:32 55.01054 82.62924 381 ft 136 kts 82°
2026-05-01 15:32 55.01295 82.65712 373 ft 106 kts 80°
2026-05-01 15:33 55.01393 82.67747 372 ft 14 kts 220°
2026-05-01 15:34 55.01364 82.67712 372 ft 0 kts 211°